Weather in Kyoto

Japan     35°07′06″N   135°42′20″E
temp.,
°C
wind,
m/s
gust,
m/s
humid.,
%
clouds,
%
prec.,
mm/h
press.,
hPa
HPBL,
m
22 april, thu
thu2200:00+12nnw23367 0.0 102361
03:00+11nnw223717 0.0 102245
06:00+10nnw2341100 0.0 102266
09:00+17nne242694 0.0 1021612
12:00+22n3418100 0.0 10201246
15:00+21nnw352190 0.0 1018921
18:00+17nnw35388 0.0 1018310
21:00+12nnw34590 0.0 1020119
23 april, fri
fri2300:00+10nnw23645 0.0 102079
03:00+10n236325 0.0 102061
06:00+10nne346527 0.0 1021112
09:00+16ese566197 0.0 10211018
12:00+20e444575 0.0 10201464
15:00+20e4350100 0.0 10201300
18:00+17e336186 0.0 1019535
21:00+15ene2269100 0.0 1021270
24 april, sat
sat2400:00+14ne1276100 0.0 1021131
03:00+13e1181100 0.0 102169
06:00+13e1181100 0.0 102192
09:00+17sse1162100 0.0 1022788
12:00+21ssw2247100 0.0 10201572
15:00+22wsw334166 0.0 10181800
18:00+19sw335196 0.0 1018468
21:00+16wsw2368100 0.0 1019206
25 april, sun
sun2500:00+14wsw127659 0.0 1018168
03:00+14nw1283100 0.6 1017201
06:00+12nnw3879100 1.5 1018773
09:00+15nnw58608 1.6 10181162
12:00+18nnw694425 0.0 10171774
15:00+17nnw711450 0.0 10161501
18:00+12nnw6116764 0.0 10181103
21:00+10nnw411640 0.0 1020883
26 april, mon
mon2600:00+9nnw27590 0.0 1021684
03:00+8nnw37630 0.0 1021367
06:00+8nnw27582 0.0 1023414
09:00+14n35322 0.0 10231109
12:00+17n342631 0.0 10221392
15:00+18n432836 0.0 10211304
18:00+15n234218 0.0 1022446
21:00+11n235999 0.0 1024137